| time (UTC) | temp C | wind direction | speed KPH | gust KPH | rain 1hr cm | rain 24hr cm | rain mn cm | humidity % | barometer mb |
| 20260508013258 | 23 | 0 | 6.4 | 17.7 | 0.00 | 0.00 | 0.00 | 59 | 1012.8 |
| 20260508012757 | 23 | 0 | 8.0 | 17.7 | 0.00 | 0.00 | 0.00 | 59 | 1012.8 |
| 20260508012258 | 23 | 0 | 6.4 | 16.1 | 0.00 | 0.00 | 0.00 | 59 | 1012.8 |
| 20260508011756 | 23 | 0 | 6.4 | 16.1 | 0.00 | 0.00 | 0.00 | 57 | 1012.7 |
| 20260508011527 | 23 | 0 | 6.4 | 16.1 | 0.00 | 0.00 | 0.00 | 58 | 1012.7 |
| 20260508010755 | 24 | 0 | 8.0 | 16.1 | 0.00 | 0.00 | 0.00 | 57 | 1012.7 |
| 20260508010254 | 24 | 0 | 8.0 | 17.7 | 0.00 | 0.00 | 0.00 | 57 | 1012.8 |
| 20260508005754 | 24 | 0 | 8.0 | 17.7 | 0.00 | 0.00 | 0.00 | 57 | 1012.7 |
| 20260508005251 | 24 | 0 | 6.4 | 17.7 | 0.00 | 0.00 | 0.00 | 56 | 1012.7 |
| 20260508004751 | 24 | 0 | 8.0 | 17.7 | 0.00 | 0.00 | 0.00 | 57 | 1012.6 |
| 20260508004245 | 24 | 0 | 8.0 | 17.7 | 0.00 | 0.00 | 0.00 | 57 | 1012.6 |
| 20260508003744 | 24 | 0 | 8.0 | 17.7 | 0.00 | 0.00 | 0.00 | 57 | 1012.6 |
| 20260508003244 | 24 | 0 | 9.7 | 19.3 | 0.00 | 0.00 | 0.00 | 56 | 1012.7 |
| 20260508002743 | 24 | 0 | 8.0 | 19.3 | 0.00 | 0.00 | 0.00 | 56 | 1012.7 |
| 20260508002238 | 24 | 0 | 8.0 | 19.3 | 0.00 | 0.00 | 0.00 | 55 | 1012.6 |
| 20260508001738 | 24 | 0 | 8.0 | 19.3 | 0.00 | 0.00 | 0.00 | 55 | 1012.7 |
| 20260508000739 | 24 | 0 | 8.0 | 20.9 | 0.00 | 0.00 | 0.00 | 56 | 1012.7 |
| 20260508000238 | 24 | 0 | 8.0 | 19.3 | 0.00 | 0.00 | 0.00 | 57 | 1012.7 |
| 20260507235738 | 24 | 0 | 9.7 | 19.3 | 0.00 | 0.00 | 0.00 | 57 | 1012.7 |
| 20260507235239 | 24 | 0 | 9.7 | 19.3 | 0.00 | 0.00 | 0.00 | 56 | 1012.8 |
| 20260507234738 | 25 | 0 | 9.7 | 22.5 | 0.00 | 0.00 | 0.00 | 56 | 1012.8 |
| 20260507234239 | 25 | 0 | 9.7 | 22.5 | 0.00 | 0.00 | 0.00 | 55 | 1012.7 |
| 20260507233739 | 25 | 0 | 11.3 | 24.1 | 0.00 | 0.00 | 0.00 | 55 | 1012.8 |
| 20260507233240 | 25 | 0 | 9.7 | 24.1 | 0.00 | 0.00 | 0.00 | 54 | 1012.8 |
| 20260507233006 | 25 | 0 | 8.0 | 19.3 | 0.00 | 0.00 | 0.00 | 54 | 1012.7 |
| 20260507232235 | 25 | 0 | 8.0 | 19.3 | 0.00 | 0.00 | 0.00 | 54 | 1012.8 |
| 20260507231735 | 25 | 0 | 8.0 | 19.3 | 0.00 | 0.00 | 0.00 | 55 | 1012.8 |
| 20260507231236 | 25 | 0 | 9.7 | 19.3 | 0.00 | 0.00 | 0.00 | 55 | 1012.7 |
| 20260507230730 | 25 | 0 | 9.7 | 19.3 | 0.00 | 0.00 | 0.00 | 53 | 1012.7 |
| 20260507230231 | 25 | 0 | 9.7 | 20.9 | 0.00 | 0.00 | 0.00 | 54 | 1012.7 |
| 20260507230002 | 25 | 0 | 11.3 | 20.9 | 0.00 | 0.00 | 0.00 | 54 | 1012.8 |
| 20260507225230 | 25 | 0 | 9.7 | 20.9 | 0.00 | 0.00 | 0.00 | 53 | 1012.8 |
| 20260507224730 | 25 | 0 | 9.7 | 20.9 | 0.00 | 0.00 | 0.00 | 53 | 1012.8 |
| 20260507224230 | 25 | 0 | 9.7 | 20.9 | 0.00 | 0.00 | 0.00 | 52 | 1012.9 |
| 20260507223231 | 25 | 0 | 9.7 | 20.9 | 0.00 | 0.00 | 0.00 | 53 | 1012.9 |
| 20260507222730 | 25 | 0 | 11.3 | 20.9 | 0.00 | 0.00 | 0.00 | 52 | 1013.0 |
| 20260507222501 | 25 | 0 | 9.7 | 20.9 | 0.00 | 0.00 | 0.00 | 51 | 1012.9 |
| 20260507221730 | 26 | 0 | 9.7 | 19.3 | 0.00 | 0.00 | 0.00 | 52 | 1013.0 |
| 20260507221224 | 26 | 0 | 11.3 | 22.5 | 0.00 | 0.00 | 0.00 | 51 | 1013.0 |
| 20260507220724 | 26 | 0 | 11.3 | 22.5 | 0.00 | 0.00 | 0.00 | 51 | 1013.1 |
| 20260507220221 | 26 | 0 | 11.3 | 25.7 | 0.00 | 0.00 | 0.00 | 51 | 1013.2 |
| 20260507215720 | 26 | 0 | 9.7 | 25.7 | 0.00 | 0.00 | 0.00 | 51 | 1013.3 |
| 20260507215219 | 26 | 0 | 9.7 | 20.9 | 0.00 | 0.00 | 0.00 | 51 | 1013.3 |
| 20260507214712 | 26 | 0 | 9.7 | 19.3 | 0.00 | 0.00 | 0.00 | 52 | 1013.3 |
| 20260507214212 | 26 | 0 | 11.3 | 19.3 | 0.00 | 0.00 | 0.00 | 52 | 1013.4 |
| 20260507213711 | 26 | 0 | 11.3 | 22.5 | 0.00 | 0.00 | 0.00 | 52 | 1013.5 |
| 20260507213211 | 26 | 0 | 9.7 | 22.5 | 0.00 | 0.00 | 0.00 | 52 | 1013.6 |
| 20260507212205 | 26 | 0 | 9.7 | 19.3 | 0.00 | 0.00 | 0.00 | 51 | 1013.6 |
| 20260507211705 | 26 | 0 | 8.0 | 19.3 | 0.00 | 0.00 | 0.00 | 52 | 1013.6 |
| 20260507211204 | 26 | 0 | 9.7 | 17.7 | 0.00 | 0.00 | 0.00 | 52 | 1013.5 |
| 20260507210704 | 26 | 0 | 9.7 | 19.3 | 0.00 | 0.00 | 0.00 | 53 | 1013.6 |
| 20260507210203 | 26 | 0 | 9.7 | 19.3 | 0.00 | 0.00 | 0.00 | 53 | 1013.7 |
| 20260507205700 | 26 | 0 | 8.0 | 19.3 | 0.00 | 0.00 | 0.00 | 52 | 1013.7 |
| 20260507205158 | 26 | 0 | 8.0 | 19.3 | 0.00 | 0.00 | 0.00 | 52 | 1013.8 |
| 20260507204658 | 26 | 0 | 8.0 | 19.3 | 0.00 | 0.00 | 0.00 | 52 | 1013.8 |
| 20260507204158 | 26 | 0 | 9.7 | 20.9 | 0.00 | 0.00 | 0.00 | 52 | 1013.8 |
| 20260507203652 | 26 | 0 | 8.0 | 20.9 | 0.00 | 0.00 | 0.00 | 52 | 1013.8 |
| 20260507203152 | 26 | 0 | 6.4 | 14.5 | 0.00 | 0.00 | 0.00 | 53 | 1013.8 |
| 20260507202651 | 26 | 0 | 8.0 | 17.7 | 0.00 | 0.00 | 0.00 | 52 | 1013.8 |
| 20260507202147 | 26 | 0 | 8.0 | 22.5 | 0.00 | 0.00 | 0.00 | 53 | 1013.8 |
| 20260507201917 | 26 | 0 | 8.0 | 22.5 | 0.00 | 0.00 | 0.00 | 53 | 1013.9 |
| 20260507201145 | 26 | 0 | 8.0 | 17.7 | 0.00 | 0.00 | 0.00 | 53 | 1014.0 |
| 20260507200641 | 26 | 0 | 8.0 | 17.7 | 0.00 | 0.00 | 0.00 | 53 | 1014.0 |
| 20260507200141 | 26 | 0 | 6.4 | 16.1 | 0.00 | 0.00 | 0.00 | 53 | 1014.1 |
| 20260507195640 | 26 | 0 | 8.0 | 17.7 | 0.00 | 0.00 | 0.00 | 53 | 1014.1 |
| 20260507195134 | 26 | 0 | 8.0 | 19.3 | 0.00 | 0.00 | 0.00 | 52 | 1014.2 |
| 20260507194634 | 26 | 0 | 6.4 | 19.3 | 0.00 | 0.00 | 0.00 | 51 | 1014.2 |
| 20260507194134 | 25 | 0 | 6.4 | 16.1 | 0.00 | 0.00 | 0.00 | 52 | 1014.2 |
| 20260507193628 | 25 | 0 | 6.4 | 16.1 | 0.00 | 0.00 | 0.00 | 53 | 1014.2 |
| 20260507193128 | 25 | 0 | 8.0 | 16.1 | 0.00 | 0.00 | 0.00 | 52 | 1014.3 |
| 20260507192629 | 25 | 0 | 6.4 | 16.1 | 0.00 | 0.00 | 0.00 | 52 | 1014.4 |
| 20260507192121 | 25 | 0 | 6.4 | 16.1 | 0.00 | 0.00 | 0.00 | 52 | 1014.4 |
| 20260507191623 | 25 | 0 | 4.8 | 16.1 | 0.00 | 0.00 | 0.00 | 53 | 1014.5 |
| 20260507191352 | 25 | 0 | 4.8 | 12.9 | 0.00 | 0.00 | 0.00 | 53 | 1014.5 |
| 20260507190616 | 25 | 0 | 4.8 | 14.5 | 0.00 | 0.00 | 0.00 | 54 | 1014.6 |
| 20260507190116 | 25 | 0 | 6.4 | 17.7 | 0.00 | 0.00 | 0.00 | 54 | 1014.7 |
| 20260507185845 | 25 | 0 | 6.4 | 17.7 | 0.00 | 0.00 | 0.00 | 53 | 1014.8 |
| 20260507185113 | 24 | 0 | 4.8 | 16.1 | 0.00 | 0.00 | 0.00 | 56 | 1014.8 |
| 20260507184613 | 24 | 0 | 4.8 | 16.1 | 0.00 | 0.00 | 0.00 | 54 | 1014.9 |
| 20260507184339 | 24 | 0 | 4.8 | 14.5 | 0.00 | 0.00 | 0.00 | 55 | 1015.1 |
| 20260507183608 | 23 | 0 | 6.4 | 14.5 | 0.00 | 0.00 | 0.00 | 57 | 1015.1 |
| 20260507183339 | 23 | 0 | 4.8 | 14.5 | 0.00 | 0.00 | 0.00 | 57 | 1015.2 |
| 20260507182606 | 23 | 0 | 4.8 | 12.9 | 0.00 | 0.00 | 0.00 | 56 | 1015.1 |
| 20260507182336 | 23 | 0 | 4.8 | 12.9 | 0.00 | 0.00 | 0.00 | 59 | 1015.1 |
| 20260507181830 | 23 | 0 | 3.2 | 12.9 | 0.00 | 0.00 | 0.00 | 59 | 1015.2 |
| 20260507181100 | 23 | 0 | 4.8 | 9.7 | 0.00 | 0.00 | 0.00 | 58 | 1015.2 |
| 20260507180559 | 22 | 0 | 4.8 | 12.9 | 0.00 | 0.00 | 0.00 | 60 | 1015.2 |
| 20260507180054 | 22 | 0 | 3.2 | 12.9 | 0.00 | 0.00 | 0.00 | 59 | 1015.4 |
| 20260507175553 | 22 | 0 | 3.2 | 8.0 | 0.00 | 0.00 | 0.00 | 60 | 1015.4 |
| 20260507175053 | 22 | 0 | 3.2 | 12.9 | 0.00 | 0.00 | 0.00 | 60 | 1015.3 |
| 20260507174552 | 22 | 0 | 4.8 | 12.9 | 0.00 | 0.00 | 0.00 | 61 | 1015.4 |
| 20260507174051 | 22 | 0 | 4.8 | 9.7 | 0.00 | 0.00 | 0.00 | 62 | 1015.4 |
| 20260507173816 | 22 | 0 | 3.2 | 12.9 | 0.00 | 0.00 | 0.00 | 61 | 1015.4 |
| 20260507173045 | 22 | 0 | 3.2 | 12.9 | 0.00 | 0.00 | 0.00 | 63 | 1015.4 |
| 20260507172545 | 21 | 0 | 3.2 | 8.0 | 0.00 | 0.00 | 0.00 | 64 | 1015.4 |
| 20260507172312 | 21 | 0 | 3.2 | 8.0 | 0.00 | 0.00 | 0.00 | 64 | 1015.5 |
| 20260507171539 | 21 | 0 | 3.2 | 8.0 | 0.00 | 0.00 | 0.00 | 64 | 1015.5 |
| 20260507171039 | 21 | 0 | 3.2 | 8.0 | 0.00 | 0.00 | 0.00 | 65 | 1015.5 |
| 20260507170535 | 21 | 0 | 3.2 | 8.0 | 0.00 | 0.00 | 0.00 | 66 | 1015.5 |
| 20260507170034 | 20 | 0 | 3.2 | 8.0 | 0.00 | 0.00 | 0.00 | 68 | 1015.5 |
| 20260507165805 | 20 | 0 | 3.2 | 9.7 | 0.00 | 0.00 | 0.00 | 67 | 1015.5 |
| 20260507165029 | 20 | 0 | 1.6 | 9.7 | 0.00 | 0.00 | 0.00 | 66 | 1015.6 |
| 20260507164529 | 20 | 0 | 1.6 | 6.4 | 0.00 | 0.00 | 0.00 | 67 | 1015.6 |
| 20260507164029 | 20 | 0 | 3.2 | 8.0 | 0.00 | 0.00 | 0.00 | 69 | 1015.6 |
| 20260507163529 | 20 | 0 | 3.2 | 8.0 | 0.00 | 0.00 | 0.00 | 69 | 1015.7 |
| 20260507163300 | 20 | 0 | 3.2 | 8.0 | 0.00 | 0.00 | 0.00 | 69 | 1015.7 |
| 20260507162527 | 19 | 0 | 3.2 | 8.0 | 0.00 | 0.00 | 0.00 | 70 | 1015.7 |
| 20260507162027 | 19 | 0 | 3.2 | 8.0 | 0.00 | 0.00 | 0.00 | 72 | 1015.7 |
| 20260507161523 | 18 | 0 | 3.2 | 9.7 | 0.00 | 0.00 | 0.00 | 74 | 1015.7 |
| 20260507161021 | 18 | 0 | 3.2 | 9.7 | 0.00 | 0.00 | 0.00 | 74 | 1015.8 |
| 20260507160519 | 18 | 0 | 3.2 | 9.7 | 0.00 | 0.00 | 0.00 | 73 | 1015.8 |
| 20260507160019 | 18 | 0 | 1.6 | 6.4 | 0.00 | 0.00 | 0.00 | 72 | 1015.7 |
| 20260507155520 | 18 | 0 | 1.6 | 6.4 | 0.00 | 0.00 | 0.00 | 74 | 1015.8 |
| 20260507155020 | 17 | 0 | 1.6 | 6.4 | 0.00 | 0.00 | 0.00 | 74 | 1015.8 |
| 20260507154517 | 17 | 0 | 1.6 | 4.8 | 0.00 | 0.00 | 0.00 | 76 | 1015.8 |
| 20260507153513 | 17 | 0 | 1.6 | 4.8 | 0.00 | 0.00 | 0.00 | 77 | 1015.9 |
| 20260507153013 | 17 | 0 | 3.2 | 6.4 | 0.00 | 0.00 | 0.00 | 79 | 1015.9 |
| 20260507152514 | 17 | 0 | 3.2 | 6.4 | 0.00 | 0.00 | 0.00 | 78 | 1016.0 |
| 20260507152009 | 16 | 0 | 3.2 | 6.4 | 0.00 | 0.00 | 0.00 | 80 | 1015.9 |
| 20260507151509 | 16 | 0 | 3.2 | 6.4 | 0.00 | 0.00 | 0.00 | 79 | 1015.9 |
| 20260507151005 | 16 | 0 | 3.2 | 6.4 | 0.00 | 0.00 | 0.00 | 80 | 1015.9 |
| 20260507150505 | 16 | 0 | 3.2 | 6.4 | 0.00 | 0.00 | 0.00 | 81 | 1015.9 |
| 20260507150006 | 16 | 0 | 3.2 | 6.4 | 0.00 | 0.00 | 0.00 | 81 | 1015.9 |
| 20260507145506 | 15 | 0 | 3.2 | 6.4 | 0.00 | 0.00 | 0.00 | 81 | 1015.9 |
| 20260507145002 | 15 | 0 | 1.6 | 4.8 | 0.00 | 0.00 | 0.00 | 81 | 1015.9 |
| 20260507144733 | 15 | 0 | 0.0 | 3.2 | 0.00 | 0.00 | 0.00 | 81 | 1015.9 |
| 20260507143959 | 15 | 0 | 1.6 | 4.8 | 0.00 | 0.00 | 0.00 | 81 | 1015.9 |
| 20260507143458 | 15 | 0 | 1.6 | 4.8 | 0.00 | 0.00 | 0.00 | 82 | 1015.8 |
| 20260507142958 | 15 | 0 | 1.6 | 4.8 | 0.00 | 0.00 | 0.00 | 81 | 1015.8 |
| 20260507142458 | 15 | 0 | 0.0 | 1.6 | 0.00 | 0.00 | 0.00 | 82 | 1015.7 |
| 20260507141958 | 15 | 0 | 0.0 | 0.0 | 0.00 | 0.00 | 0.00 | 86 | 1015.6 |
| 20260507141457 | 15 | 0 | 0.0 | 0.0 | 0.00 | 0.00 | 0.00 | 88 | 1015.5 |
| 20260507140458 | 13 | 0 | 0.0 | 0.0 | 0.00 | 0.00 | 0.00 | 90 | 1015.5 |
| 20260507135956 | 13 | 0 | 0.0 | 0.0 | 0.00 | 0.00 | 0.00 | 90 | 1015.4 |
| 20260507135726 | 12 | 0 | 0.0 | 1.6 | 0.00 | 0.00 | 0.00 | 90 | 1015.4 |
| 20260507134950 | 11 | 0 | 0.0 | 1.6 | 0.00 | 0.00 | 0.00 | 90 | 1015.3 |
| 20260507134445 | 11 | 0 | 0.0 | 0.0 | 0.00 | 0.00 | 0.00 | 89 | 1015.3 |
| 20260507133946 | 11 | 0 | 0.0 | 0.0 | 0.00 | 0.00 | 0.00 | 90 | 1015.2 |
| 20260507133442 | 11 | 0 | 0.0 | 1.6 | 0.00 | 0.00 | 0.00 | 89 | 1015.1 |
| 20260507132939 | 11 | 0 | 0.0 | 3.2 | 0.00 | 0.00 | 0.00 | 89 | 1015.1 |
| 20260507132710 | 11 | 0 | 0.0 | 3.2 | 0.00 | 0.00 | 0.00 | 89 | 1015.1 |
| 20260507131934 | 11 | 0 | 1.6 | 3.2 | 0.00 | 0.00 | 0.00 | 89 | 1014.9 |
| 20260507131433 | 11 | 0 | 1.6 | 3.2 | 0.00 | 0.00 | 0.00 | 89 | 1014.9 |
| 20260507130933 | 11 | 0 | 0.0 | 1.6 | 0.00 | 0.00 | 0.00 | 89 | 1014.9 |
| 20260507130427 | 11 | 0 | 0.0 | 0.0 | 0.00 | 0.00 | 0.00 | 89 | 1014.8 |
| 20260507125928 | 11 | 0 | 0.0 | 0.0 | 0.00 | 0.00 | 0.00 | 89 | 1014.8 |
| 20260507125427 | 11 | 0 | 0.0 | 0.0 | 0.00 | 0.00 | 0.00 | 89 | 1014.8 |
| 20260507124928 | 11 | 0 | 0.0 | 0.0 | 0.00 | 0.00 | 0.00 | 89 | 1014.8 |
| 20260507124656 | 11 | 0 | 0.0 | 0.0 | 0.00 | 0.00 | 0.00 | 89 | 1014.8 |
| 20260507123922 | 11 | 0 | 0.0 | 0.0 | 0.00 | 0.00 | 0.00 | 89 | 1014.7 |
| 20260507123422 | 11 | 0 | 0.0 | 0.0 | 0.00 | 0.00 | 0.00 | 88 | 1014.8 |
| 20260507122922 | 11 | 0 | 0.0 | 0.0 | 0.00 | 0.00 | 0.00 | 88 | 1014.8 |
| 20260507122423 | 11 | 0 | 0.0 | 0.0 | 0.00 | 0.00 | 0.00 | 88 | 1014.8 |
| 20260507122153 | 11 | 0 | 0.0 | 0.0 | 0.00 | 0.00 | 0.00 | 88 | 1014.8 |
| 20260507121416 | 11 | 0 | 0.0 | 0.0 | 0.00 | 0.00 | 0.00 | 88 | 1014.8 |
| 20260507121148 | 11 | 0 | 0.0 | 0.0 | 0.00 | 0.00 | 0.00 | 88 | 1014.9 |
| 20260507120415 | 11 | 0 | 0.0 | 0.0 | 0.00 | 0.00 | 0.00 | 88 | 1014.9 |
| 20260507115910 | 11 | 0 | 0.0 | 0.0 | 0.00 | 0.00 | 0.00 | 88 | 1014.9 |
| 20260507115410 | 11 | 0 | 0.0 | 0.0 | 0.00 | 0.00 | 0.00 | 88 | 1014.9 |
| 20260507114909 | 11 | 0 | 0.0 | 0.0 | 0.00 | 0.00 | 0.00 | 88 | 1014.9 |
| 20260507114636 | 11 | 0 | 0.0 | 0.0 | 0.00 | 0.00 | 0.00 | 87 | 1014.9 |
| 20260507114134 | 11 | 0 | 0.0 | 0.0 | 0.00 | 0.00 | 0.00 | 87 | 1014.8 |
| 20260507113403 | 12 | 0 | 0.0 | 0.0 | 0.00 | 0.00 | 0.00 | 87 | 1014.8 |
| 20260507112858 | 12 | 0 | 0.0 | 0.0 | 0.00 | 0.00 | 0.00 | 87 | 1014.8 |
| 20260507112358 | 12 | 0 | 0.0 | 0.0 | 0.00 | 0.00 | 0.00 | 87 | 1014.9 |
| 20260507111859 | 12 | 0 | 0.0 | 0.0 | 0.00 | 0.00 | 0.00 | 87 | 1014.9 |
| 20260507111358 | 12 | 0 | 0.0 | 0.0 | 0.00 | 0.00 | 0.00 | 88 | 1015.1 |
| 20260507110857 | 12 | 0 | 0.0 | 0.0 | 0.00 | 0.00 | 0.00 | 87 | 1014.9 |
| 20260507110629 | 12 | 0 | 0.0 | 0.0 | 0.00 | 0.00 | 0.00 | 87 | 1014.9 |
| 20260507105857 | 12 | 0 | 0.0 | 0.0 | 0.00 | 0.00 | 0.00 | 87 | 1015.1 |
| 20260507105352 | 12 | 0 | 0.0 | 0.0 | 0.00 | 0.00 | 0.00 | 87 | 1015.1 |
| 20260507104853 | 12 | 0 | 0.0 | 0.0 | 0.00 | 0.00 | 0.00 | 87 | 1015.2 |
| 20260507104622 | 12 | 0 | 0.0 | 0.0 | 0.00 | 0.00 | 0.00 | 87 | 1015.2 |
| 20260507103847 | 12 | 0 | 0.0 | 0.0 | 0.00 | 0.00 | 0.00 | 87 | 1015.2 |
| 20260507103347 | 12 | 0 | 0.0 | 0.0 | 0.00 | 0.00 | 0.00 | 86 | 1015.3 |
| 20260507102846 | 12 | 0 | 0.0 | 0.0 | 0.00 | 0.00 | 0.00 | 86 | 1015.3 |
| 20260507102335 | 12 | 0 | 0.0 | 0.0 | 0.00 | 0.00 | 0.00 | 86 | 1015.3 |
| 20260507102106 | 12 | 0 | 0.0 | 0.0 | 0.00 | 0.00 | 0.00 | 86 | 1015.3 |
| 20260507101335 | 12 | 0 | 0.0 | 0.0 | 0.00 | 0.00 | 0.00 | 86 | 1015.3 |
| 20260507100830 | 12 | 0 | 0.0 | 0.0 | 0.00 | 0.00 | 0.00 | 85 | 1015.3 |
| 20260507100330 | 12 | 0 | 0.0 | 0.0 | 0.00 | 0.00 | 0.00 | 86 | 1015.4 |
| 20260507095323 | 12 | 0 | 0.0 | 0.0 | 0.00 | 0.00 | 0.00 | 86 | 1015.4 |
| 20260507094824 | 12 | 0 | 0.0 | 0.0 | 0.00 | 0.00 | 0.00 | 86 | 1015.4 |
| 20260507094323 | 12 | 0 | 0.0 | 0.0 | 0.00 | 0.00 | 0.00 | 85 | 1015.5 |
| 20260507093819 | 12 | 0 | 0.0 | 0.0 | 0.00 | 0.00 | 0.00 | 85 | 1015.5 |
| 20260507093319 | 12 | 0 | 0.0 | 0.0 | 0.00 | 0.00 | 0.00 | 85 | 1015.6 |
| 20260507092817 | 12 | 0 | 0.0 | 0.0 | 0.00 | 0.00 | 0.00 | 84 | 1015.7 |
| 20260507092311 | 12 | 0 | 0.0 | 0.0 | 0.00 | 0.00 | 0.00 | 84 | 1015.8 |
| 20260507091811 | 12 | 0 | 0.0 | 0.0 | 0.00 | 0.00 | 0.00 | 84 | 1015.9 |
| 20260507091311 | 12 | 0 | 0.0 | 0.0 | 0.00 | 0.00 | 0.00 | 84 | 1015.9 |
| 20260507090811 | 12 | 0 | 0.0 | 0.0 | 0.00 | 0.00 | 0.00 | 84 | 1015.9 |
| 20260507090309 | 13 | 0 | 0.0 | 0.0 | 0.00 | 0.00 | 0.00 | 84 | 1016.0 |
| 20260507085803 | 13 | 0 | 0.0 | 0.0 | 0.00 | 0.00 | 0.00 | 84 | 1016.0 |
| 20260507085306 | 13 | 0 | 0.0 | 0.0 | 0.00 | 0.00 | 0.00 | 83 | 1016.1 |
| 20260507084803 | 13 | 0 | 0.0 | 0.0 | 0.00 | 0.00 | 0.00 | 84 | 1016.2 |
| 20260507084301 | 13 | 0 | 0.0 | 0.0 | 0.00 | 0.00 | 0.00 | 84 | 1016.2 |
| 20260507083801 | 13 | 0 | 0.0 | 0.0 | 0.00 | 0.00 | 0.00 | 83 | 1016.2 |
| 20260507083256 | 13 | 0 | 0.0 | 0.0 | 0.00 | 0.00 | 0.00 | 83 | 1016.2 |
| 20260507082755 | 13 | 0 | 0.0 | 0.0 | 0.00 | 0.00 | 0.00 | 83 | 1016.2 |
| 20260507082255 | 13 | 0 | 0.0 | 0.0 | 0.00 | 0.00 | 0.00 | 83 | 1016.2 |
| 20260507081751 | 13 | 0 | 0.0 | 0.0 | 0.00 | 0.00 | 0.00 | 82 | 1016.3 |
| 20260507081249 | 13 | 0 | 0.0 | 0.0 | 0.00 | 0.00 | 0.00 | 83 | 1016.3 |
| 20260507080750 | 13 | 0 | 0.0 | 0.0 | 0.00 | 0.00 | 0.00 | 82 | 1016.4 |
| 20260507080243 | 13 | 0 | 0.0 | 0.0 | 0.00 | 0.00 | 0.00 | 82 | 1016.4 |
| 20260507075744 | 13 | 0 | 0.0 | 0.0 | 0.00 | 0.00 | 0.00 | 82 | 1016.3 |
| 20260507075515 | 13 | 0 | 0.0 | 0.0 | 0.00 | 0.00 | 0.00 | 82 | 1016.2 |
| 20260507075008 | 13 | 0 | 0.0 | 0.0 | 0.00 | 0.00 | 0.00 | 82 | 1016.4 |
| 20260507074238 | 13 | 0 | 0.0 | 0.0 | 0.00 | 0.00 | 0.00 | 81 | 1016.4 |
| 20260507073734 | 13 | 0 | 0.0 | 0.0 | 0.00 | 0.00 | 0.00 | 81 | 1016.4 |
| 20260507073234 | 14 | 0 | 0.0 | 0.0 | 0.00 | 0.00 | 0.00 | 81 | 1016.3 |
| 20260507073005 | 14 | 0 | 0.0 | 0.0 | 0.00 | 0.00 | 0.00 | 81 | 1016.4 |
| 20260507072234 | 14 | 0 | 0.0 | 0.0 | 0.00 | 0.00 | 0.00 | 81 | 1016.4 |
| 20260507071735 | 14 | 0 | 0.0 | 0.0 | 0.00 | 0.00 | 0.00 | 81 | 1016.3 |
| 20260507071233 | 14 | 0 | 0.0 | 0.0 | 0.00 | 0.00 | 0.00 | 80 | 1016.4 |
| 20260507070731 | 14 | 0 | 0.0 | 0.0 | 0.00 | 0.00 | 0.00 | 80 | 1016.4 |
| 20260507070230 | 14 | 0 | 0.0 | 0.0 | 0.00 | 0.00 | 0.00 | 80 | 1016.4 |
| 20260507065725 | 14 | 0 | 0.0 | 0.0 | 0.00 | 0.00 | 0.00 | 80 | 1016.5 |
| 20260507065225 | 14 | 0 | 0.0 | 0.0 | 0.00 | 0.00 | 0.00 | 79 | 1016.5 |
| 20260507064725 | 15 | 0 | 0.0 | 0.0 | 0.00 | 0.00 | 0.00 | 78 | 1016.6 |
| 20260507064223 | 15 | 0 | 0.0 | 0.0 | 0.00 | 0.00 | 0.00 | 78 | 1016.7 |
| 20260507063722 | 15 | 0 | 0.0 | 1.6 | 0.00 | 0.00 | 0.00 | 77 | 1016.7 |
| 20260507063454 | 15 | 0 | 0.0 | 1.6 | 0.00 | 0.00 | 0.00 | 77 | 1016.7 |
| 20260507062722 | 15 | 0 | 0.0 | 0.0 | 0.00 | 0.00 | 0.00 | 77 | 1016.7 |
| 20260507062218 | 15 | 0 | 0.0 | 0.0 | 0.00 | 0.00 | 0.00 | 77 | 1016.6 |
| 20260507061948 | 15 | 0 | 0.0 | 0.0 | 0.00 | 0.00 | 0.00 | 76 | 1016.6 |
| 20260507061217 | 15 | 0 | 0.0 | 0.0 | 0.00 | 0.00 | 0.00 | 76 | 1016.7 |
| 20260507060718 | 15 | 0 | 0.0 | 1.6 | 0.00 | 0.00 | 0.00 | 75 | 1016.6 |
| 20260507060216 | 16 | 0 | 0.0 | 1.6 | 0.00 | 0.00 | 0.00 | 75 | 1016.6 |
| 20260507055711 | 16 | 0 | 0.0 | 1.6 | 0.00 | 0.00 | 0.00 | 74 | 1016.7 |
| 20260507054711 | 16 | 0 | 0.0 | 0.0 | 0.00 | 0.00 | 0.00 | 73 | 1016.6 |
| 20260507054442 | 16 | 0 | 0.0 | 0.0 | 0.00 | 0.00 | 0.00 | 72 | 1016.7 |
| 20260507053942 | 16 | 0 | 0.0 | 1.6 | 0.00 | 0.00 | 0.00 | 72 | 1016.7 |
| 20260507053205 | 16 | 0 | 0.0 | 1.6 | 0.00 | 0.00 | 0.00 | 72 | 1016.7 |
| 20260507052705 | 16 | 0 | 0.0 | 3.2 | 0.00 | 0.00 | 0.00 | 71 | 1016.6 |
| 20260507052205 | 16 | 0 | 1.6 | 6.4 | 0.00 | 0.00 | 0.00 | 71 | 1016.5 |
| 20260507051933 | 16 | 0 | 1.6 | 6.4 | 0.00 | 0.00 | 0.00 | 71 | 1016.5 |
| 20260507051201 | 17 | 0 | 3.2 | 6.4 | 0.00 | 0.00 | 0.00 | 71 | 1016.6 |
| 20260507050701 | 17 | 0 | 1.6 | 6.4 | 0.00 | 0.00 | 0.00 | 71 | 1016.5 |
| 20260507050201 | 17 | 0 | 1.6 | 6.4 | 0.00 | 0.00 | 0.00 | 71 | 1016.5 |
| 20260507045700 | 17 | 0 | 1.6 | 8.0 | 0.00 | 0.00 | 0.00 | 70 | 1016.4 |
| 20260507045155 | 17 | 0 | 3.2 | 8.0 | 0.00 | 0.00 | 0.00 | 70 | 1016.4 |
| 20260507044655 | 17 | 0 | 3.2 | 6.4 | 0.00 | 0.00 | 0.00 | 70 | 1016.4 |
| 20260507044154 | 17 | 0 | 3.2 | 6.4 | 0.00 | 0.00 | 0.00 | 69 | 1016.4 |
| 20260507043649 | 17 | 0 | 3.2 | 6.4 | 0.00 | 0.00 | 0.00 | 69 | 1016.4 |
| 20260507043150 | 17 | 0 | 4.8 | 6.4 | 0.00 | 0.00 | 0.00 | 69 | 1016.4 |
| 20260507042649 | 17 | 0 | 3.2 | 8.0 | 0.00 | 0.00 | 0.00 | 69 | 1016.3 |
| 20260507042144 | 17 | 0 | 3.2 | 8.0 | 0.00 | 0.00 | 0.00 | 68 | 1016.3 |
| 20260507041913 | 17 | 0 | 3.2 | 8.0 | 0.00 | 0.00 | 0.00 | 68 | 1016.4 |
| 20260507041143 | 18 | 0 | 4.8 | 8.0 | 0.00 | 0.00 | 0.00 | 67 | 1016.3 |
| 20260507040637 | 18 | 0 | 4.8 | 8.0 | 0.00 | 0.00 | 0.00 | 66 | 1016.2 |
| 20260507040137 | 18 | 0 | 3.2 | 9.7 | 0.00 | 0.00 | 0.00 | 66 | 1016.2 |
| 20260507035631 | 18 | 0 | 3.2 | 9.7 | 0.00 | 0.00 | 0.00 | 65 | 1016.1 |
| 20260507035403 | 18 | 0 | 3.2 | 6.4 | 0.00 | 0.00 | 0.00 | 65 | 1016.0 |
| 20260507034630 | 18 | 0 | 1.6 | 6.4 | 0.00 | 0.00 | 0.00 | 65 | 1016.0 |
| 20260507034130 | 18 | 0 | 1.6 | 8.0 | 0.00 | 0.00 | 0.00 | 66 | 1015.9 |
| 20260507033627 | 18 | 0 | 1.6 | 8.0 | 0.00 | 0.00 | 0.00 | 67 | 1015.9 |
| 20260507033127 | 18 | 0 | 1.6 | 8.0 | 0.00 | 0.00 | 0.00 | 67 | 1015.9 |
| 20260507032626 | 18 | 0 | 1.6 | 8.0 | 0.00 | 0.00 | 0.00 | 67 | 1015.8 |
| 20260507032126 | 18 | 0 | 3.2 | 9.7 | 0.00 | 0.00 | 0.00 | 67 | 1015.7 |
| 20260507031853 | 18 | 0 | 3.2 | 9.7 | 0.00 | 0.00 | 0.00 | 66 | 1015.7 |
| 20260507031121 | 18 | 0 | 1.6 | 6.4 | 0.00 | 0.00 | 0.00 | 65 | 1015.6 |
| 20260507030621 | 19 | 0 | 1.6 | 9.7 | 0.00 | 0.00 | 0.00 | 65 | 1015.6 |
| 20260507030115 | 19 | 0 | 4.8 | 14.5 | 0.00 | 0.00 | 0.00 | 63 | 1015.6 |
| 20260507025612 | 19 | 0 | 6.4 | 14.5 | 0.00 | 0.00 | 0.00 | 63 | 1015.5 |
| 20260507025113 | 19 | 0 | 4.8 | 14.5 | 0.00 | 0.00 | 0.00 | 63 | 1015.5 |
| 20260507024114 | 20 | 0 | 4.8 | 14.5 | 0.00 | 0.00 | 0.00 | 62 | 1015.3 |
| 20260507023107 | 20 | 0 | 4.8 | 9.7 | 0.00 | 0.00 | 0.00 | 61 | 1015.3 |
| 20260507022606 | 20 | 0 | 4.8 | 12.9 | 0.00 | 0.00 | 0.00 | 60 | 1015.1 |
| 20260507022102 | 20 | 0 | 4.8 | 12.9 | 0.00 | 0.00 | 0.00 | 60 | 1015.1 |
| 20260507021600 | 21 | 0 | 4.8 | 14.5 | 0.00 | 0.00 | 0.00 | 59 | 1015.1 |
| 20260507021102 | 21 | 0 | 4.8 | 14.5 | 0.00 | 0.00 | 0.00 | 58 | 1015.1 |
| 20260507020555 | 21 | 0 | 6.4 | 14.5 | 0.00 | 0.00 | 0.00 | 58 | 1014.9 |
| 20260507020054 | 21 | 0 | 4.8 | 14.5 | 0.00 | 0.00 | 0.00 | 57 | 1015.1 |
| 20260507015826 | 21 | 0 | 4.8 | 12.9 | 0.00 | 0.00 | 0.00 | 57 | 1014.9 |
| 20260507015051 | 21 | 0 | 6.4 | 14.5 | 0.00 | 0.00 | 0.00 | 57 | 1014.9 |
| 20260507014548 | 21 | 0 | 6.4 | 16.1 | 0.00 | 0.00 | 0.00 | 56 | 1014.8 |
| 20260507014049 | 22 | 0 | 8.0 | 16.1 | 0.00 | 0.00 | 0.00 | 56 | 1014.8 |
| 20260507013819 | 22 | 0 | 6.4 | 16.1 | 0.00 | 0.00 | 0.00 | 55 | 1014.8 |